Home > Weather > Schleswig > Past weeks

Flag for Germany Weather for the Past 2 Weeks in Schleswig, Schleswig-Holstein, Germany

Now
36 °F

Chilly.


Feels Like: 24 °F
Forecast: 27 / 34 °F
Wind: 22 mph from Northeast

Location: Schleswig-Jagel

Current Time: Feb 14, 2016 at 10:36:30 PM

Latest Report: Feb 14, 2016 at 9:20 PM


Visibility: 3 mi

Pressure: 29.53 "Hg

Humidity: 87%

Dew point: 32 °F

Location of SchleswigLocation

Historic Weather in Schleswig — Graph

°F

Schleswig Temperature Yesterday

Maximum temperature yesterday: 37 °F (at 11:20 AM)
Minimum temperature yesterday: 32 °F (at 6:20 AM)
Average temperature yesterday: 35 °F

High & Low Weather Summary for the Past Weeks

 TemperatureHumidityPressure
High50 °F (Feb 7, 10:20 AM)100% (Feb 1, 1:20 AM)30.15 "Hg (Feb 1, 1:20 AM)
Low32 °F (Feb 4, 8:20 PM)66% (Feb 7, 11:20 PM)28.85 "Hg (Feb 9, 9:45 PM)
Average40 °F86%29.52 "Hg
* Reported Jan 30 9:20 PM — Feb 14 9:20 PM, Schleswig, Weather by CustomWeather, © 2016

Note: Actual official high and low records may vary slightly from our data, if they occured in-between our weather recording intervals... More about our weather records

Advertising

Schleswig Weather History for the Previous 24 Hours

 ConditionsComfort  
Time TempWeatherWind HumidityBarometerVisibility
9:20 PM
Sun, Feb 14
36 °FChilly.22 mph87%29.53 "Hg3 mi
8:20 PM36 °FChilly.22 mph87%29.50 "Hg1 mi
7:20 PM36 °FChilly.20 mph87%29.47 "Hg3 mi
6:20 PM37 °FChilly.21 mph81%29.45 "Hg3 mi
5:20 PM37 °FChilly.21 mph81%29.42 "Hg2 mi
4:20 PM37 °FChilly.20 mph81%29.39 "Hg3 mi
3:20 PM37 °FChilly.22 mph81%29.36 "Hg3 mi
2:20 PM37 °FChilly.23 mph81%29.36 "Hg3 mi
1:20 PM37 °FChilly.23 mph81%29.36 "Hg3 mi
12:20 PM37 °FChilly.23 mph81%29.33 "Hg3 mi
11:20 AM36 °FChilly.18 mph87%29.33 "Hg3 mi
10:20 AM36 °FChilly.18 mph87%29.30 "Hg3 mi
9:20 AM36 °FChilly.20 mph81%29.30 "Hg4 mi
8:20 AM36 °FChilly.21 mph81%29.30 "Hg3 mi
7:20 AM36 °FChilly.22 mph87%29.27 "Hg3 mi
6:20 AM36 °FChilly.17 mph87%29.27 "Hg3 mi
5:20 AM36 °FChilly.21 mph87%29.27 "Hg3 mi
4:20 AM36 °FChilly.20 mph87%29.24 "Hg3 mi
3:20 AM37 °FChilly.16 mph87%29.27 "Hg3 mi
2:20 AM37 °FChilly.16 mph87%29.27 "Hg3 mi
1:20 AM37 °FChilly.15 mph87%29.27 "Hg3 mi
12:20 AM36 °FChilly.15 mph93%29.30 "Hg3 mi
11:20 PM
Sat, Feb 13
36 °FChilly.16 mph87%29.30 "Hg3 mi
10:20 PM36 °FChilly.15 mph87%29.33 "Hg3 mi
Weather by CustomWeather, © 2016

See weather overviewHow to use our weather pages